{"data":{"norad_id":66499,"intl_designator":"2025-263Q","name":"STARLINK-35816","alt_names":[],"object_type":"PAYLOAD","status":"ACTIVE","operator":null,"country":"US","launch_date":"2025-11-15","launch_site_code":"AFETR","launch_vehicle":null,"mission":null,"orbit_class":"UNKNOWN","rcs_meters":null,"size_class":null,"mass_kg":null,"dimensions":null,"purposes":["comms"],"wikipedia_slug":null,"has_3d_model":false,"image_url":null,"decayed_at":null,"tle_current":{"epoch":"2026-09-20T11:11:23.239680Z","epoch_age_seconds":92835,"freshness":"FRESH","line1":"1 66499U 25263Q   26263.46624120  .00007869  00000+0  29513-3 0  9998","line2":"2 66499  43.0014 331.0336 0001656 273.1226  86.9436 15.27585335 48684","mean_motion":15.27585335,"eccentricity":0.0001656,"inclination_deg":43.0014,"raan_deg":331.0336,"arg_perigee_deg":273.1226,"mean_anomaly_deg":86.9436,"bstar":0.00029513,"rev_number":4868,"period_min":94.266419492696,"perigee_km":481.89691140482,"apogee_km":484.16933094896,"semimajor_km":6861.1701211769,"source":"CELESTRAK","updated_at":"2026-09-21T09:00:35.921885Z"}}}